Burlington, VT

10:40 AM EST on November 24, 2017 (GMT -0500)
Burlington International

Weather History for KBTV - February, 2014

Change the Weather History Date:

Saturday, February 8, 2014

  Actual Average Record
Temperature  
Mean Temperature 17 °F 20 °F  
Max Temperature 23 °F 29 °F 51 °F (1925)
Min Temperature 11 °F 11 °F -25 °F (1934)
Degree Days  
Heating Degree Days 48 45  
Month to date heating degree days 352 364  
Since 1 July heating degree days 4568 4558  
Cooling Degree Days 0 0  
Month to date cooling degree days 0 0  
Year to date cooling degree days 0 0  
Moisture  
Dew Point 3 °F    
Average Humidity 56    
Maximum Humidity 67    
Minimum Humidity 44    
Precipitation  
Precipitation 0.00 in 0.06 in 0.80 in (1895)
Month to date precipitation 0.49 0.51  
Year to date precipitation 2.94 2.57  
Snow  
Snow 0.00 in 0.70 in 11.20 in (1947)
Month to date snowfall 10.1 4.9  
Since 1 July snowfall 44.3 49.3  
Snow Depth 6.00 in    
Sea Level Pressure  
Sea Level Pressure 30.22 in    
Wind  
Wind Speed 6 mph (SW)    
Max Wind Speed 13 mph    
Max Gust Speed -    
Visibility 10 miles    
Events      
T = Trace of Precipitation, MM = Missing Value Source: NWS Daily Summary

Daily Weather History Graph

Daily Weather History Graph

Search for Another Location

Airport or City:

Trip Planner

Search our weather history database for the weather conditions in past years. The results will help you decide how hot, cold, wet, or windy it might be!

Date:

Astronomy

Feb. 08, 2014 Rise Set
Actual Time 7:02 AM EST 5:11 PM EST
Civil Twilight 6:32 AM EST 5:42 PM EST
Nautical Twilight 5:57 AM EST 6:16 PM EST
Astronomical Twilight 5:23 AM EST 6:50 PM EST
Moon 12:00 PM EST (2/8) 2:15 AM EST (2/8)
Length of Visible Light 11h 10m
Length of Day
10h 09m
Waxing Gibbous, 68% of the Moon is Illuminated
Feb 8
Waxing Gibbous
Feb 14
Full
Feb 22
Last Quarter
Mar 1
New
Mar 8
First Quarter

Hourly Weather History & Observations

Time (EST) Temp. Windchill Dew Point Humidity Pressure Visibility Wind Dir Wind Speed Gust Speed Precip Events Conditions
12:54 AM 15.1 °F 7.7 °F 1.9 °F 56% 30.20 in 10.0 mi WSW 4.6 mph - N/A   Overcast
1:54 AM 15.1 °F 9.4 °F 1.9 °F 56% 30.21 in 10.0 mi SSW 3.5 mph - N/A   Overcast
2:54 AM 18.0 °F 6.9 °F 3.0 °F 52% 30.20 in 10.0 mi West 9.2 mph - N/A   Overcast
3:54 AM 12.9 °F - 1.9 °F 62% 30.22 in 10.0 mi Calm Calm - N/A   Overcast
4:54 AM 10.9 °F 0.2 °F -0.0 °F 61% 30.24 in 10.0 mi SSW 6.9 mph - N/A   Overcast
5:54 AM 12.0 °F -1.3 °F 1.0 °F 61% 30.24 in 10.0 mi South 10.4 mph - N/A   Overcast
6:54 AM 12.0 °F -2.7 °F 1.0 °F 61% 30.25 in 10.0 mi South 12.7 mph - N/A   Mostly Cloudy
7:54 AM 12.0 °F 0.5 °F -0.0 °F 59% 30.27 in 10.0 mi SSW 8.1 mph - N/A   Mostly Cloudy
8:54 AM 12.0 °F 0.5 °F 1.0 °F 61% 30.28 in 10.0 mi South 8.1 mph - N/A   Mostly Cloudy
9:54 AM 16.0 °F 3.6 °F 3.0 °F 57% 30.27 in 10.0 mi South 10.4 mph - N/A   Mostly Cloudy
10:54 AM 19.0 °F 9.0 °F 3.0 °F 50% 30.27 in 10.0 mi South 8.1 mph - N/A   Overcast
11:54 AM 19.9 °F 10.1 °F 3.0 °F 48% 30.23 in 10.0 mi SSW 8.1 mph - N/A   Scattered Clouds
12:54 PM 23.0 °F 17.0 °F 3.0 °F 42% 30.20 in 10.0 mi Variable 4.6 mph - N/A   Scattered Clouds
1:54 PM 21.0 °F 14.6 °F 3.0 °F 46% 30.18 in 10.0 mi North 4.6 mph - N/A   Mostly Cloudy
2:54 PM 23.0 °F 18.4 °F 3.9 °F 44% 30.18 in 10.0 mi Variable 3.5 mph - N/A   Scattered Clouds
3:54 PM 21.9 °F 15.7 °F 3.9 °F 46% 30.19 in 10.0 mi West 4.6 mph - N/A   Partly Cloudy
4:54 PM 19.0 °F 12.3 °F 3.9 °F 52% 30.19 in 10.0 mi NNE 4.6 mph - N/A   Partly Cloudy
5:54 PM 19.0 °F 13.9 °F 3.9 °F 52% 30.21 in 10.0 mi North 3.5 mph - N/A   Partly Cloudy
6:54 PM 19.0 °F 11.1 °F 5.0 °F 54% 30.21 in 10.0 mi NW 5.8 mph - N/A   Partly Cloudy
7:54 PM 19.0 °F 12.3 °F 5.0 °F 54% 30.21 in 10.0 mi NW 4.6 mph - N/A   Mostly Cloudy
8:54 PM 16.0 °F 10.4 °F 5.0 °F 62% 30.20 in 10.0 mi NE 3.5 mph - N/A   Overcast
9:54 PM 15.1 °F - 6.1 °F 68% 30.19 in 10.0 mi Calm Calm - N/A   Overcast
10:54 PM 14.0 °F 8.2 °F 5.0 °F 67% 30.20 in 10.0 mi SE 3.5 mph - N/A   Overcast
11:54 PM 12.9 °F - 5.0 °F 71% 30.19 in 10.0 mi Calm Calm - N/A   Overcast